Location: Enborne
(51.3833°N, 1.3667°W)
Time: 00:26:26
(UTC+00:00)

NOSS 2-2 (C) - Pass Details

Date: 24 January 2021
Orbit: 463 x 1745 km, 63.3° (Epoch: 03 March)

Event Time Altitude Azimuth Distance (km) Brightness Sun altitude
Rises 20:21:49 0° 314° (NW) 3,021 7.8 -34.0°
Reaches altitude 10° 20:23:50 10° 315° (NW) 2,239 7.0 -34.3°
Enters shadow 20:26:35 36° 316° (NW) 1,288 5.4 -34.7°
